When you browse on this site, cookies collect data to enhance your experience and personalize the content and advertising you see.
Visit our Privacy Policy to learn more. By continuing to use the site, you agree to this use of cookies and data.
  • în România
  • Lista ţărilor
  • Pe 7 zile
  • Temperatura apei
  • Meteo pe hartă
  • Widget-uri
  • user-avatar
    Intrare

    Meteo pe oră la Vlorë

    Astăzi, 29 Mai, Vineri

    Timp Temperatura Precipitaţii Vânt Presiune Umiditate
    00:00 +16°C° 0 mm 3 m/s 763 mmHg 71%
    01:00 +16°C° 0 mm 3 m/s 762 mmHg 68%
    02:00 +14°C° 0 mm 3 m/s 762 mmHg 68%
    03:00 +14°C° 0 mm 3 m/s 762 mmHg 69%
    04:00 +14°C° 0 mm 3 m/s 762 mmHg 69%
    05:00 +16°C° 0.1 mm 3 m/s 762 mmHg 66%
    06:00 +17°C° 0.1 mm 3 m/s 763 mmHg 64%
    07:00 +19°C° 0.1 mm 2 m/s 763 mmHg 61%
    08:00 +20°C° 0.1 mm 3 m/s 763 mmHg 58%
    09:00 +20°C° 0.1 mm 3 m/s 763 mmHg 55%
    10:00 +21°C° 0.1 mm 3 m/s 763 mmHg 53%
    11:00 +21°C° 0 mm 3 m/s 762 mmHg 53%
    12:00 +22°C° 0 mm 3 m/s 762 mmHg 53%
    13:00 +23°C° 0 mm 2 m/s 762 mmHg 53%
    14:00 +23°C° 0 mm 2 m/s 762 mmHg 53%
    15:00 +22°C° 0 mm 3 m/s 762 mmHg 53%
    16:00 +22°C° 0 mm 3 m/s 761 mmHg 54%
    17:00 +20°C° 0 mm 2 m/s 761 mmHg 60%
    18:00 +19°C° 0 mm 2 m/s 761 mmHg 66%
    19:00 +18°C° 0 mm 2 m/s 761 mmHg 72%
    20:00 +17°C° 0 mm 2 m/s 762 mmHg 73%
    21:00 +16°C° 0 mm 2 m/s 762 mmHg 74%
    22:00 +16°C° 0 mm 2 m/s 762 mmHg 75%
    23:00 +16°C° 0 mm 2 m/s 762 mmHg 74%

    Mâine, 30 Mai, Sâmbătă

    Timp Temperatura Precipitaţii Vânt Presiune Umiditate
    00:00 +15°C° 0 mm 2 m/s 762 mmHg 73%
    01:00 +15°C° 0 mm 1 m/s 762 mmHg 72%
    02:00 +15°C° 0 mm 1 m/s 762 mmHg 70%
    03:00 +15°C° 0 mm 2 m/s 762 mmHg 69%
    04:00 +15°C° 0 mm 2 m/s 762 mmHg 67%
    05:00 +16°C° 0 mm 2 m/s 762 mmHg 63%
    06:00 +17°C° 0 mm 2 m/s 762 mmHg 59%
    07:00 +19°C° 0 mm 2 m/s 762 mmHg 54%
    08:00 +21°C° 0 mm 1 m/s 762 mmHg 52%
    09:00 +22°C° 0 mm 1 m/s 762 mmHg 49%
    10:00 +23°C° 0 mm 1 m/s 762 mmHg 46%
    11:00 +23°C° 0 mm 1 m/s 762 mmHg 48%
    12:00 +23°C° 0 mm 2 m/s 761 mmHg 49%
    13:00 +23°C° 0 mm 2 m/s 761 mmHg 50%
    14:00 +22°C° 0 mm 3 m/s 761 mmHg 51%
    15:00 +22°C° 0 mm 3 m/s 761 mmHg 53%
    16:00 +21°C° 0 mm 3 m/s 761 mmHg 54%
    17:00 +20°C° 0 mm 3 m/s 761 mmHg 60%
    18:00 +19°C° 0 mm 3 m/s 761 mmHg 66%
    19:00 +18°C° 0 mm 3 m/s 761 mmHg 72%
    20:00 +17°C° 0.1 mm 3 m/s 761 mmHg 72%
    21:00 +17°C° 0.1 mm 3 m/s 761 mmHg 71%
    22:00 +15°C° 0.1 mm 4 m/s 761 mmHg 71%
    23:00 +16°C° 0.1 mm 3 m/s 761 mmHg 69%

    Poimâine, 31 Mai, Duminică

    Timp Temperatura Precipitaţii Vânt Presiune Umiditate
    00:00 +16°C° 0.1 mm 3 m/s 761 mmHg 68%
    01:00 +16°C° 0.1 mm 3 m/s 760 mmHg 67%
    02:00 +16°C° 0.2 mm 3 m/s 760 mmHg 66%
    03:00 +16°C° 0.2 mm 3 m/s 760 mmHg 65%
    04:00 +16°C° 0.2 mm 3 m/s 760 mmHg 65%
    05:00 +17°C° 0.4 mm 3 m/s 760 mmHg 63%
    06:00 +18°C° 0.4 mm 3 m/s 760 mmHg 61%
    07:00 +19°C° 0.4 mm 3 m/s 760 mmHg 59%
    08:00 +20°C° 0.3 mm 3 m/s 760 mmHg 58%
    09:00 +21°C° 0.3 mm 4 m/s 761 mmHg 57%
    10:00 +22°C° 0.3 mm 4 m/s 761 mmHg 56%
    11:00 +22°C° 0.1 mm 4 m/s 760 mmHg 56%
    12:00 +22°C° 0.1 mm 4 m/s 760 mmHg 55%
    13:00 +22°C° 0.1 mm 4 m/s 760 mmHg 55%
    14:00 +22°C° 0.1 mm 3 m/s 760 mmHg 56%
    15:00 +22°C° 0.1 mm 3 m/s 759 mmHg 57%
    16:00 +21°C° 0.1 mm 2 m/s 759 mmHg 59%
    17:00 +20°C° 0 mm 2 m/s 759 mmHg 65%
    18:00 +20°C° 0 mm 1 m/s 759 mmHg 70%
    19:00 +19°C° 0 mm 1 m/s 759 mmHg 76%
    20:00 +18°C° 0 mm 1 m/s 760 mmHg 78%
    21:00 +17°C° 0 mm 2 m/s 760 mmHg 80%
    22:00 +16°C° 0 mm 2 m/s 760 mmHg 82%
    23:00 +16°C° 0 mm 2 m/s 760 mmHg 82%

    1 Iunie, Luni

    Timp Temperatura Precipitaţii Vânt Presiune Umiditate
    00:00 +16°C° 0 mm 3 m/s 760 mmHg 82%
    01:00 +16°C° 0 mm 3 m/s 759 mmHg 83%
    02:00 +16°C° 0 mm 3 m/s 759 mmHg 84%
    03:00 +16°C° 0 mm 3 m/s 759 mmHg 84%
    04:00 +16°C° 0 mm 3 m/s 759 mmHg 85%
    05:00 +17°C° 0.1 mm 3 m/s 759 mmHg 78%
    06:00 +18°C° 0.1 mm 3 m/s 759 mmHg 71%
    07:00 +19°C° 0.1 mm 3 m/s 759 mmHg 64%
    08:00 +19°C° 0.1 mm 4 m/s 759 mmHg 62%
    09:00 +20°C° 0.1 mm 5 m/s 759 mmHg 60%
    10:00 +21°C° 0.1 mm 5 m/s 759 mmHg 58%
    11:00 +21°C° 0 mm 6 m/s 759 mmHg 59%
    12:00 +21°C° 0 mm 7 m/s 759 mmHg 60%
    13:00 +22°C° 0 mm 8 m/s 758 mmHg 60%
    14:00 +21°C° 0 mm 7 m/s 758 mmHg 61%
    15:00 +21°C° 0 mm 7 m/s 758 mmHg 62%
    16:00 +21°C° 0 mm 7 m/s 758 mmHg 63%
    17:00 +20°C° 0 mm 6 m/s 758 mmHg 69%
    18:00 +19°C° 0 mm 6 m/s 758 mmHg 75%
    19:00 +17°C° 0 mm 5 m/s 758 mmHg 80%
    20:00 +17°C° 0 mm 4 m/s 758 mmHg 81%
    21:00 +17°C° 0 mm 4 m/s 758 mmHg 82%
    22:00 +16°C° 0 mm 3 m/s 758 mmHg 83%
    23:00 +16°C° 0 mm 3 m/s 758 mmHg 81%

    2 Iunie, Marţi

    Timp Temperatura Precipitaţii Vânt Presiune Umiditate
    00:00 +16°C° 0 mm 3 m/s 758 mmHg 80%
    01:00 +16°C° 0 mm 3 m/s 757 mmHg 78%
    02:00 +16°C° 0.1 mm 3 m/s 757 mmHg 77%
    03:00 +14°C° 0.1 mm 3 m/s 757 mmHg 77%
    04:00 +15°C° 0.1 mm 2 m/s 757 mmHg 76%
    05:00 +17°C° 0.1 mm 2 m/s 757 mmHg 72%
    06:00 +18°C° 0.1 mm 2 m/s 757 mmHg 67%
    07:00 +20°C° 0.1 mm 2 m/s 757 mmHg 63%
    08:00 +21°C° 0 mm 2 m/s 757 mmHg 60%
    09:00 +21°C° 0 mm 2 m/s 757 mmHg 57%
    10:00 +23°C° 0 mm 1 m/s 757 mmHg 55%
    11:00 +24°C° 0 mm 3 m/s 757 mmHg 55%
    12:00 +23°C° 0 mm 4 m/s 756 mmHg 56%
    13:00 +23°C° 0 mm 6 m/s 756 mmHg 56%
    14:00 +23°C° 0 mm 6 m/s 756 mmHg 58%
    15:00 +22°C° 0 mm 6 m/s 756 mmHg 60%
    16:00 +22°C° 0 mm 7 m/s 756 mmHg 62%
    17:00 +21°C° 0 mm 6 m/s 756 mmHg 67%
    18:00 +20°C° 0 mm 6 m/s 756 mmHg 72%
    19:00 +17°C° 0 mm 6 m/s 756 mmHg 77%
    20:00 +17°C° 0 mm 5 m/s 756 mmHg 77%
    21:00 +17°C° 0 mm 5 m/s 756 mmHg 77%
    22:00 +17°C° 0 mm 4 m/s 757 mmHg 77%
    23:00 +17°C° 0 mm 4 m/s 756 mmHg 77%

    3 Iunie, Miercuri

    Timp Temperatura Precipitaţii Vânt Presiune Umiditate
    00:00 +17°C° 0 mm 3 m/s 756 mmHg 76%
    01:00 +17°C° 0 mm 3 m/s 756 mmHg 75%
    02:00 +17°C° 0 mm 2 m/s 756 mmHg 75%
    03:00 +16°C° 0 mm 2 m/s 756 mmHg 75%
    04:00 +16°C° 0 mm 2 m/s 756 mmHg 75%
    05:00 +18°C° 0 mm 2 m/s 756 mmHg 70%
    06:00 +19°C° 0 mm 2 m/s 756 mmHg 66%
    07:00 +21°C° 0 mm 2 m/s 757 mmHg 61%
    08:00 +23°C° 0 mm 2 m/s 757 mmHg 58%
    09:00 +24°C° 0 mm 2 m/s 757 mmHg 56%
    10:00 +24°C° 0 mm 2 m/s 757 mmHg 53%
    11:00 +24°C° 0.1 mm 3 m/s 757 mmHg 56%
    12:00 +23°C° 0.1 mm 4 m/s 757 mmHg 58%
    13:00 +23°C° 0.1 mm 5 m/s 757 mmHg 60%
    14:00 +23°C° 0 mm 5 m/s 757 mmHg 60%
    15:00 +23°C° 0 mm 5 m/s 757 mmHg 61%
    16:00 +22°C° 0 mm 6 m/s 757 mmHg 61%
    17:00 +21°C° 0 mm 5 m/s 757 mmHg 67%
    18:00 +20°C° 0 mm 4 m/s 757 mmHg 72%
    19:00 +19°C° 0 mm 3 m/s 757 mmHg 77%
    20:00 +18°C° 0 mm 3 m/s 757 mmHg 78%
    21:00 +18°C° 0 mm 3 m/s 758 mmHg 79%
    22:00 +17°C° 0 mm 3 m/s 758 mmHg 80%
    23:00 +17°C° 0 mm 3 m/s 758 mmHg 80%
    Arată mai mult